Girona, Spain

10:54 AM CEST on August 21, 2017 (GMT +0200)
Girona

Weather History for LEGE - April, 2013

Change the Weather History Date:

Monday, April 15, 2013

  Actual Average Record
Temperature  
Mean Temperature 57 °F -  
Max Temperature 72 °F 70 °F 78 °F (2014)
Min Temperature 42 °F 48 °F 35 °F (2008)
Degree Days  
Heating Degree Days 8    
Growing Degree Days 7 (Base 50)    
Moisture  
Dew Point 43 °F    
Average Humidity 62    
Maximum Humidity 93    
Minimum Humidity 25    
Precipitation  
Precipitation 0.00 in 0.11 in - ()
Sea Level Pressure  
Sea Level Pressure 30.18 in    
Wind  
Wind Speed 5 mph ()    
Max Wind Speed 22 mph    
Max Gust Speed -    
Visibility 7.7 miles    
Events      
Averages and records for this station are not official NWS values.
T = Trace of Precipitation, MM = Missing Value Source: Averaged Metar Reports

Daily Weather History Graph

Daily Weather History Graph

Search for Another Location

Airport or City:

Trip Planner

Search our weather history database for the weather conditions in past years. The results will help you decide how hot, cold, wet, or windy it might be!

Date:

Astronomy

Apr. 15, 2013 Rise Set
Actual Time 7:08 AM CEST 8:29 PM CEST
Civil Twilight 6:39 AM CEST 8:58 PM CEST
Nautical Twilight 6:04 AM CEST 9:33 PM CEST
Astronomical Twilight 5:28 AM CEST 10:10 PM CEST
Moon 10:18 AM CEST (4/15) 12:32 AM CEST (4/15)
Length of Visible Light 14h 19m
Length of Day
13h 21m
Waxing Crescent, 22% of the Moon is Illuminated
Apr 15
Waxing Crescent
Apr 18
First Quarter
Apr 25
Full
May 2
Last Quarter
May 10
New

Hourly Weather History & Observations

Time (CEST) Temp. Windchill Dew Point Humidity Pressure Visibility Wind Dir Wind Speed Gust Speed Precip Events Conditions
12:00 AM 50.0 °F - 42.8 °F 76% 30.24 in - Calm Calm - N/A   Clear
12:30 AM 48.2 °F - 42.8 °F 82% 30.24 in - Calm Calm - N/A   Clear
1:00 AM 46.4 °F - 41.0 °F 81% 30.24 in - Calm Calm - N/A   Clear
1:30 AM 46.4 °F - 41.0 °F 81% 30.24 in - Calm Calm - N/A   Clear
2:00 AM 46 °F - 40 °F 71% 30.25 in - West 1.2 mph - -  
2:00 AM 46.4 °F - 41.0 °F 81% 30.24 in - West 1.2 mph - N/A   Clear
2:30 AM 44.6 °F - 41.0 °F 87% 30.24 in - Variable 1.2 mph - N/A   Clear
3:00 AM 44.6 °F - 41.0 °F 87% 30.24 in - Calm Calm - N/A   Clear
3:30 AM 46.4 °F - 41.0 °F 81% 30.24 in - Calm Calm - N/A   Clear
4:00 AM 48.2 °F - 41.0 °F 76% 30.24 in - WSW 2.3 mph - N/A   Clear
4:30 AM 46.4 °F - 41.0 °F 81% 30.24 in - SW 1.2 mph - N/A   Clear
5:00 AM 44.6 °F - 41.0 °F 87% 30.24 in - Calm Calm - N/A   Clear
5:30 AM 44.6 °F - 42.8 °F 93% 30.21 in - Calm Calm - N/A   Clear
6:00 AM 46.4 °F - 42.8 °F 87% 30.21 in - SSW 1.2 mph - N/A   Clear
6:30 AM 44.6 °F 43.1 °F 41.0 °F 87% 30.21 in - WSW 3.5 mph - N/A   Clear
7:00 AM 42.8 °F 41.1 °F 41.0 °F 93% 30.21 in - SW 3.5 mph - N/A   Clear
7:30 AM 44.6 °F - 41.0 °F 87% 30.21 in - Calm Calm - N/A   Clear
8:00 AM 46 °F - 41 °F 78% 30.21 in 19 mi West 3.5 mph - -   Scattered Clouds
8:00 AM 46.4 °F - 41.0 °F 81% 30.21 in - Variable 2.3 mph - N/A   Clear
8:30 AM 51.8 °F - 42.8 °F 71% 30.21 in 6.2 mi Calm Calm - N/A   Scattered Clouds
9:00 AM 53.6 °F - 44.6 °F 72% 30.21 in 6.2 mi Variable 1.2 mph - N/A   Partly Cloudy
9:30 AM 59.0 °F - 50.0 °F 72% 30.21 in 6.2 mi Variable 1.2 mph - N/A   Partly Cloudy
10:00 AM 62.6 °F - 50.0 °F 63% 30.21 in - South 3.5 mph - N/A   Clear
10:30 AM 64.4 °F - 48.2 °F 56% 30.21 in - South 9.2 mph - N/A   Clear
11:00 AM 66.2 °F - 46.4 °F 49% 30.21 in - South 10.4 mph - N/A   Clear
11:30 AM 68.0 °F - 42.8 °F 40% 30.21 in 6.2 mi South 13.8 mph - N/A   Partly Cloudy
12:00 PM 69.8 °F - 44.6 °F 40% 30.21 in 6.2 mi South 13.8 mph - N/A   Partly Cloudy
12:30 PM 69.8 °F - 44.6 °F 40% 30.18 in 6.2 mi South 17.3 mph - N/A   Partly Cloudy
1:00 PM 69.8 °F - 44.6 °F 40% 30.18 in 6.2 mi South 19.6 mph - N/A   Partly Cloudy
1:30 PM 69.8 °F - 44.6 °F 40% 30.18 in 6.2 mi South 19.6 mph - N/A   Partly Cloudy
2:00 PM 71 °F - 43 °F 25% 30.16 in 34 mi South 20.7 mph - -   Scattered Clouds
2:00 PM 69.8 °F - 42.8 °F 38% 30.18 in 6.2 mi South 19.6 mph - N/A   Partly Cloudy
2:30 PM 71.6 °F - 44.6 °F 38% 30.15 in - South 21.9 mph - N/A   Clear
3:00 PM 69.8 °F - 44.6 °F 40% 30.15 in - South 21.9 mph - N/A   Clear
3:30 PM 69.8 °F - 44.6 °F 40% 30.15 in - South 18.4 mph - N/A   Clear
4:00 PM 71.6 °F - 42.8 °F 35% 30.12 in 6.2 mi South 16.1 mph - N/A   Partly Cloudy
4:30 PM 71.6 °F - 44.6 °F 38% 30.12 in 6.2 mi South 18.4 mph - N/A   Partly Cloudy
5:00 PM 68.0 °F - 44.6 °F 43% 30.12 in 6.2 mi South 13.8 mph - N/A   Mostly Cloudy
5:30 PM 68.0 °F - 41.0 °F 37% 30.12 in 6.2 mi South 15.0 mph - N/A   Mostly Cloudy
6:00 PM 66.2 °F - 42.8 °F 43% 30.12 in 6.2 mi South 17.3 mph - N/A   Mostly Cloudy
6:30 PM 66.2 °F - 41.0 °F 40% 30.12 in 6.2 mi South 15.0 mph - N/A   Mostly Cloudy
7:00 PM 64.4 °F - 41.0 °F 42% 30.12 in - South 13.8 mph - N/A   Clear
7:30 PM 64.4 °F - 41.0 °F 42% 30.12 in - South 11.5 mph - N/A   Clear
8:00 PM 62 °F - 43 °F 38% 30.11 in 19 mi South 6.9 mph - -   Clear
8:00 PM 62.6 °F - 44.6 °F 52% 30.12 in - South 5.8 mph - N/A   Clear
8:30 PM 62.6 °F - 44.6 °F 52% 30.12 in - Variable 1.2 mph - N/A   Clear
9:00 PM 59.0 °F - 44.6 °F 59% 30.12 in - Calm Calm - N/A   Clear
9:30 PM 59.0 °F - 46.4 °F 63% 30.12 in - Calm Calm - N/A   Clear
10:00 PM 57.2 °F - 46.4 °F 67% 30.15 in - Calm Calm - N/A   Clear
10:30 PM 55.4 °F - 46.4 °F 72% 30.15 in - NNE 2.3 mph - N/A   Clear
11:00 PM 55.4 °F - 46.4 °F 72% 30.15 in - NNE 2.3 mph - N/A   Clear
11:30 PM 55.4 °F - 46.4 °F 72% 30.15 in - Calm Calm - N/A   Clear